Погода в Бишкеке

Погода в Бишкеке : погода сейчас, прогноз погоды и архив. Всё, что Вы хотите узнать о погоде в Бишкеке!

Поиск расширенной информации на нашем сайте:

Другие новости

Новости СМИ2

Главная страница сайта

Новости сайта

03.07.2017

Напоминаем, что на нашем специализированном сайте Метеоцентр.Азия вы можете получить высокодетализированные автоматические прогнозы погоды по пунктам России, СНГ и мира в авиационном формате (включающие направление и скорость ветра, видимость, явления погоды, количество и форму облачности, нижнюю и верхнюю границу облачности).

Рекомендуем: Закажи скорее ремонт двухкомнатной квартиры у нас и получи смету бесплатно.

Погода в Бишкеке - сегодня

Время (UTC), дата Ветер
(°,м/с) 
Видим.   Явления Облачность Т
(°С)
Тd
(°С)
f(%) Тe
(°С)
Pmin
(гПа)
dP
(гПа)
Po
(мм)
O2
(г/м3)
Тmin Tmax R s Состояние
почвы
18 24.07.17 320 (СЗ) н/о    ясно 
+23.9 +10.9 44 +28  1004  691  254    +36.1       
21 24.07.17 тихо ()   н/о    ясно 
+22.8 +10.5 46 +26  1003.6  -0.6  691  255           
00 25.07.17 180 (Ю) н/о    ясно 
+21.4 +10.2 49 +25  1004.1  691  256           
03 25.07.17 350 (С) 20000 м    ясно 
+29.3 +10 30 +32  1001.7  -0.1  691  249           
06 25.07.17 350 (С) 20000 м    1/1 1000 м 
[Cu hum]
+33.3 +6.8 19 +33  1000  -0.6  690  247           
09 25.07.17 310 (СЗ) 20000 м    3/3 1000 м 
[Cu hum]
+35.2 +5.5 16 +35  998.6  -0.9  689  245           
12 25.07.17 260 (З) 20000 м    4/0 средняя 
[Ac trans]
+36.3 +5.5 15 +36  997.8  -0.4  689  244           
15 25.07.17 170 (Ю) н/о    4/0 средняя 
[Ac trans]
+30.7 +11.2 30 +35  999.3  0.1  689  248    +37       
18 25.07.17 130 (ЮВ) н/о    3/0 средняя 
[Ac trans]
+27.9 +8.5 30 +29  1000.5  0.3  689  251    +37       
21 25.07.17 тихо ()   н/о    ясно 
+23.2 +9.4 41 +25  1001.7  -0.1  689  254           
00 26.07.17 тихо ()   20000 м    3/0 верхняя 
[Ci fib]
+21.2 +9 46 +23  1002.4  0.2  690  256           
03 26.07.17 050 (СВ) 20000 м    3/0 верхняя 
[Ci fib]
+30.9 +10.3 28 +34  1000.5  0.7  690  248           
06 26.07.17 320 (СЗ) 20000 м    3/3 1000 м 
[Cu hum]
+34.7 +0.9 12 +35  999.6  -0.1  690  246           
09 26.07.17 360 (С) 20000 м    3/3 1000 м 
[Cu hum]
+37.6 +1.1 10 +38  997.8  -0.9  689  244           
12 26.07.17 270 (З) 20000 м    3/3 1000 м 
[Cu hum]
+37.8 -5 6 +38  997.8  689  244           
15 26.07.17 180 (Ю) н/о    1/0 средняя 
[Ac trans]
+31.2 +8.6 25 +32  1000.1  0.6  690  248    +39.3       
18 26.07.17 160 (Ю) н/о    ясно 
+28.8 +3.4 20 +29  1000.8  690  251    +39.3       
21 26.07.17 140 (ЮВ) н/о    ясно 
+23.8 +4.5 29 +24  1001.9  -0.3  690  255           
00 27.07.17 тихо ()   20000 м    ясно 
+22.6 +4.6 31 +23  1002.8  0.6  690  256           
03 27.07.17 050 (СВ) 20000 м    ясно 
+32.1 +7 21 +32  1000.5  0.4  690  248           
06 27.07.17 310 (СЗ) 20000 м    1/1 1000 м 
[Cu hum]
+36.6 +4.6 14 +37  999.3  -0.1  690  244           
09 27.07.17 260 (З) 20000 м    4/1 1000 м средняя 
[Cu hum|Ac trans]
+37.1 +4.8 14 +37  999  -0.1  690  244           
12 27.07.17 310 (СЗ) 20000 м    8/0 средняя 
[Ac trans]
+37.8 +4.1 12 +38  998.4  -0.5  690  243           
15 27.07.17 170 (Ю) н/о    4/0 средняя 
[Ac trans]
+31.1 +9.5 26 +33  1000.6  0.5  690  248    +39.1       
18 27.07.17 170 (Ю) н/о    3/0 средняя 
[Ac trans]
+29.4 +5.9 23 +29  1002.3  1.1  691  250    +39.1       
Время (UTC), дата Ветер
(°,м/с) 
Видим.   Явления Облачность Т
(°С)
Тd
(°С)
f(%) Тe
(°С)
Pmin
(гПа)
dP
(гПа)
Po
(мм)
O2
(г/м3)
Тmin Tmax R s Состояние
почвы

Для получения пояснительной информации подведите курсор к названию столбца.

ПОГОДА в Бишкеке - архив

Всё, что Вы хотите узнать о погоде в Бишкеке - удобно и подробно!

Выберите нужную дату (начиная с 1 января 2015* года) и нажмите кнопку "Найти".
Будут отображены архивные сводки погоды по пункту Бишкек, начиная с указанной даты.


Отображать данные в формате CSV (для использования в таблицах Excel)


Внимание! Наш архив погоды предназначен исключительно для личного некоммерческого использования в познавательных целях. Если Вам необходимы официальные справки о состоянии погоды (для производственных, юридических, коммерческих и т.п. целей), обращайтесь в органы Росгидромета.

*Примечание: данная дата относится к архиву по метеостанциям СССР (Россия, СНГ, Балтия).
Архив по метеостанциям Зарубежной Европы и Азии (кроме Китая) хранится 10 дней, по другим регионам земного шара (Китай, Африка, Америка, Австралия, Океания) - 1 день.

Бишкек - район местоположения метеостанции


Название, широта, долгота, высота метеостанции:
Бишкек (город) 42.9°ш. 74.5°д. 760 м над ур. моря [Кыргызстан]

Дополнительная информация

В oтличие oт бoльшинства пoгoдных сайтoв мы публикуем пoдрoбную метеoинфoрмацию в детальнoм прoфессиoнальнoм фoрмате.

Характеристики температуры и влажнoсти вoздуха измеряются на высoте 2 м в тени вдали oт зданий и деревьев.
Скoрoсть ветра измеряется на высoте 10 м (на урoвне рoста челoвека скoрoсть ветра ниже в 1.5-2 раза). Если метеoстанция нахoдится в гoрoде или в лесу, тo скoрoсть ветра занижена на 2-4 м/с пo сравнению с oткрытым местoм. Скoрoсть ветра над акватoриями крупных рек и oзёр, а также на вершинах хoлмoв на 2-5 м/с выше, чем в oбычных услoвиях.
Атмoсфернoе давление в разных тoчках местнoсти мoжет значительнo oтличаться oт давления на метеoстанции, в зависимoсти oт услoвий рельефа (при пoдъёме на 10 м давление пoнижается примернo на 1 мм рт.ст.).